Regional Weather Roundup
Issued by NWS

Home | Current Version | Previous Version | Text Only | Print | Product List | Glossary Off
Versions: 1 2 3 4 5 6 7 8 9 10 11 12 13 14 15 16 17 18 19 20 21 22 23 24 25 26 27 28 29 30 31 32 33 34 35 36 37 38 39 40 41 42 43 44 45 46 47 48 49 50

000
ASUS43 KLOT 011206
RWRIL

ILLINOIS REGIONAL WEATHER ROUNDUP
NATIONAL WEATHER SERVICE CHICAGO/ROMEOVILLE IL
600 AM CST SUN FEB 01 2015

NOTE: "FAIR" INDICATES FEW OR NO CLOUDS BELOW 12,000 FEET WITH NO
SIGNIFICANT WEATHER AND/OR OBSTRUCTIONS TO VISIBILITY.

* THESE STATIONS ARE NOT UNDER NWS QUALITY CONTROL. THEY ALSO MAY NOT
  REPORT WEATHER SUCH AS PRECIPITATION OR FOG.

ILZ001-002-007-009-015-016-024-011300-
NORTHWEST ILLINOIS

CITY           SKY/WX    TMP DP  RH WIND       PRES   REMARKS
MOLINE         LGT SNOW  32  31  96 E13       29.85F VSB 3/4 WCI  22
6HR MIN TEMP:  32; 6HR MAX TEMP:  33; 6HR PCP:  0.48;

STERLING*        N/A    N/A N/A N/A MISG        N/A
SAVANNA*       LGT SNOW  30  28  93 NE18      29.92F VSB 1   WCI  18
$$

ILZ003-004-008-010-011-017-018-011300-
NORTH CENTRAL ILLINOIS

CITY           SKY/WX    TMP DP  RH WIND       PRES   REMARKS
ROCKFORD       LGT SNOW  29  25  85 NE18      29.98F VSB 1   WCI  16
6HR MIN TEMP:  29; 6HR MAX TEMP:  31; 6HR PCP:  0.29;

FREEPORT*      LGT SNOW  27  26  94 NE21G28   29.97F WCI  13
ROCHELLE*      LGT SNOW  30  30  98 E10       29.94F VSB 3/4 WCI  21
DE KALB*       LGT SNOW  29  28  96 E15       29.96F VSB 3/4 WCI  18
PERU*          LGT SNOW  33  33 100 E7        29.90F VSB 3/4 WCI  27
$$

ILZ005-006-012>014-019>023-011300-
NORTHEAST ILLINOIS

CITY           SKY/WX    TMP DP  RH WIND       PRES   REMARKS
CHICAGO-OHARE  SNOW      30  29  96 E10       30.00F VSB 1/2 WCI  21
6HR MIN TEMP:  30; 6HR MAX TEMP:  31; 6HR PCP:  0.23;

CHICAGO-MIDWAY LGT SNOW  33  31  92 E10       30.00F VSB 3/4 WCI  25
6HR MIN TEMP:  33; 6HR MAX TEMP:  33; 6HR PCP:  0.13;

AURORA         SNOW      32  29  88 E17       29.96F VSB 1/2 WCI  21
6HR MIN TEMP:  32; 6HR MAX TEMP:  33; 6HR PCP:  0.04;

LANSING*       LGT SNOW  32  32 100 E3        30.00F
JOLIET*        SNOW      32  32  99 E5        29.96F VSB 1/2 WCI  27
WAUKEGAN       LGT SNOW  28  27  96 NE18      30.04F VSB 3/4 WCI  15
6HR MIN TEMP:  28; 6HR MAX TEMP:  30; 6HR PCP: TRACE;

DUPAGE AIRPORT LGT SNOW  31  28  89 E16       29.98F VSB 3/4 WCI  20
6HR MIN TEMP:  31; 6HR MAX TEMP:  31; 6HR PCP:  0.06;

KANKAKEE*      LGT SNOW  32  32  99 E7        29.97F WCI  26
WHEELING       LGT SNOW  30  29  96 E12       30.03F VSB 3/4 WCI  20
6HR MIN TEMP:  30; 6HR MAX TEMP:  31; 6HR PCP: TRACE;

MORRIS*        LGT SNOW  32  32 100 E6        29.93F VSB 3/4 WCI  27
ROMEOVILLE*    LGT SNOW  31  31 100 E8        29.96F VSB 1   WCI  24
NORTHERLY ISL    N/A     31  30  96 E14         N/A  WCI  21
$$

LMZ740>746-011300-
SOUTHERN LAKE MICHIGAN

STATION/POSITION SKY/WX   TEMP    WIND        PRES    VSBY  WAVE
                          AIR SEA DIR/SP/G                  HT/PER
                          (F)     (DEG/KT/KT) (MB)    (MI)  (FT/S)
WAUKEGAN HARBOR            29      60/ 23/ 28   N/A
HARRISON CRIB              31      80/ 18/ 21   N/A
BURNHAM HARBOR             31      80/ 11/ 14   N/A
CALUMET HARBOR             31      70/  9/ 12   N/A
MICHIGAN CITY              30      70/  7/  8   N/A
$$

ILZ025>027-034>036-040-047-049-050-058-095>099-011300-
WEST-CENTRAL ILLINOIS

CITY           SKY/WX    TMP DP  RH WIND       PRES   REMARKS
QUINCY         LGT SNOW  32  31  96 SE8       29.78F VSB 3/4 WCI  25
GALESBURG*     LGT SNOW  32  32 100 E8        29.83F WCI  25
MACOMB*        CLOUDY    32  32 100 SE7       29.84F WCI  26
JACKSONVILLE*  LGT SNOW  34  33  94 SE9       29.82F WCI  27
PITTSFIELD*    LGT SNOW  33  32  96 SE8       29.80F WCI  26
$$

ILZ028>032-037-038-041>044-048-051>054-059>061-011300-
CENTRAL ILLINOIS

CITY           SKY/WX    TMP DP  RH WIND       PRES   REMARKS
PONTIAC        LGT SNOW  33  33  99 E12       29.91F WCI  25
BLOOMINGTON    LGT SNOW  33  33 100 SE14      29.87F VSB 3/4 WCI  23
DECATUR        LGT SNOW  33  32  96 SE16      29.88F VSB 1   WCI  23
PEORIA         LGT SNOW  34  32  92 E9G18     29.86F VSB 3/4 WCI  27
6HR MIN TEMP:  34; 6HR MAX TEMP:  34; 6HR PCP:  0.57;

LACON*         LGT SNOW  32  31  98 E10       29.87F VSB 1   WCI  24
LINCOLN*       LGT SNOW  34  33  97 SE8       29.87F WCI  27
SPRINGFIELD    LGT SNOW  34  31  88 SE15      29.84F FOG     WCI  24
6HR MIN TEMP:  33; 6HR MAX TEMP:  36; 6HR PCP:  0.19;

TAYLORVILLE    LGT SNOW  32  32 100 SE14      29.84F WCI  22
$$

ILZ033-039-045-046-055>057-062-063-011300-
EAST-CENTRAL ILLINOIS

CITY           SKY/WX    TMP DP  RH WIND       PRES   REMARKS
CHAMPAIGN      LGT SNOW  33  32  96 E10       29.92F VSB 1   WCI  25
DANVILLE*      CLOUDY    33  32  97 NE7       29.92F WCI  26
RANTOUL*       LGT SNOW  34  33  97 E8        29.93F VSB 1   WCI  27
MATTOON        LGT SNOW  33  28  81 SE8       29.92F WCI  26
PARIS*         CLOUDY    34  30  87 E6        29.94F WCI  28
$$

ILZ079-100>102-011300-
SOUTHWEST ILLINOIS

CITY           SKY/WX    TMP DP  RH WIND       PRES   REMARKS
BELLEVILLE     RAIN      35  34  99 N3        29.87S FOG
CAHOKIA*       RAIN      35  33  92 E9        29.85F FOG     WCI  28
SPARTA*        RAIN      37  34  88 SE6       29.82F WCI  33
$$

ILZ064>066-069>071-074>076-080>082-084>086-088>090-092>094-011300-
SOUTH-CENTRAL ILLINOIS

CITY           SKY/WX    TMP DP  RH WIND       PRES   REMARKS
CARBONDALE     LGT RAIN  41  31  67 S9        29.83F
6HR MIN TEMP:  39; 6HR MAX TEMP:  44; 6HR PCP:  0.03;

CAIRO*         LGT RAIN  46  34  63 S13       29.86F
EFFINGHAM*     LGT SNOW  34  27  75 NE7       29.92F WCI  28
MARION         LGT RAIN  43  32  65 S12       29.84F
MT. VERNON     CLOUDY    36  28  75 E5        29.87F WCI  32
CENTRALIA*     RAIN      35  31  85 E7        29.85F WCI  29
SALEM*         LGT RAIN  37  32  84 E5        29.88S WCI  33
METROPOLIS*    LGT RAIN  48  28  46 S6G18     29.87F
$$

ILZ067-068-072-073-078-083-087-091-011300-
SOUTHEAST ILLINOIS

CITY           SKY/WX    TMP DP  RH WIND       PRES   REMARKS
LAWRENCEVILLE  CLOUDY    36  26  67 E8        29.92F WCI  30
FLORA*         RAIN      35  30  82 SE7       29.90S WCI  29
FAIRFIELD*     LGT RAIN  37  31  81 SE9       29.87F WCI  30
HARRISBURG*    RAIN      41  31  67 S8        29.89F
ROBINSON*      CLOUDY    36  26  67 SE8       29.93F WCI  30
CARMI*         LGT RAIN  40  33  76 SE9       29.88F
$$

ABBREVIATIONS USED IN REMARKS
   TC - TEMPERATURE IN CELSIUS
  WCI - WIND CHILL INDEX
   HX - HEAT INDEX
  VSB - VISIBILITY
$$




USA.gov is the U.S. government's official web portal to all federal, state and local government web resources and services.